Location: Munkebjergskolens Observatorium
(55.3864°N, 10.3987°E)
Time: 22:25:57
(UTC+01:00)

Envisat - Pass Details

Date: 30 November 2022
Orbit: 763 x 765 km, 98.2° (Epoch: 01 February)

Event Time Altitude Azimuth Distance (km) Brightness Sun altitude
Rises 05:29:02 0° 13° (NNE) 3,249 6.3 -23.0°
Reaches altitude 10° 05:31:23 10° 8° (N) 2,318 5.5 -22.6°
Maximum altitude 05:36:19 52° 294° (WNW) 958 3.1 -21.9°
Enters shadow 05:36:31 51° 286° (WNW) 961 3.1 -21.9°
